Location: Poigny-la-Forêt
(48.6876°N, 1.7701°E)
Time: 20:06:45
(UTC+02:00)

Envisat - Pass Details

Date: 28 March 2019
Orbit: 764 x 766 km, 98.1° (Epoch: 21 October)

Event Time Altitude Azimuth Distance (km) Brightness Sun altitude
Rises 20:56:05 0° 217° (SW) 3,220 6.4 -16.5°
Reaches altitude 10° 20:59:33 10° 242° (WSW) 2,301 6.0 -17.0°
Maximum altitude 21:02:09 14° 273° (W) 2,038 6.2 -17.4°
Drops below altitude 10° 21:04:46 10° 305° (NW) 2,310 6.8 -17.8°
Sets 21:08:17 0° 330° (NNW) 3,243 7.2 -18.3°
